Regional Weather Roundup
Issued by NWS

Home | Current Version | Previous Version | Graphics & Text | Print | Product List | Glossary On
Versions: 1 2 3 4 5 6 7 8 9 10 11 12 13 14 15 16 17 18 19 20 21 22 23 24 25 26 27 28 29 30 31 32 33 34 35 36 37 38 39 40 41 42 43 44 45 46 47 48 49 50
000
ASUS43 KMKX 290011
RWRWI

WISCONSIN REGIONAL WEATHER ROUNDUP
NATIONAL WEATHER SERVICE MILWAUKEE/SULLIVAN WI
700 PM CDT SUN AUG 28 2016

NOTE: "FAIR" INDICATES FEW OR NO CLOUDS BELOW 12,000 FEET WITH NO
SIGNIFICANT WEATHER AND/OR OBSTRUCTIONS TO VISIBILITY.

WIZ001-002-006>008-014>016-023>028-290100-
NORTHWEST WISCONSIN

CITY           SKY/WX    TMP DP  RH WIND       PRES   REMARKS
SUPERIOR ARPT  PTCLDY    67  63  89 NE8       30.14R
6HR MIN TEMP:  66; 6HR MAX TEMP:  73;

ASHLAND        CLEAR     70  64  81 NE8       30.16R
6HR MIN TEMP:  70; 6HR MAX TEMP:  79;

HAYWARD        CLEAR     74  64  71 SE3       30.16S
6HR MIN TEMP:  71; 6HR MAX TEMP:  77;

SIREN          CLEAR     76  66  70 SE5       30.13S
6HR MIN TEMP:  71; 6HR MAX TEMP:  78;

CUMBERLAND     CLEAR     73  63  68 SE5       30.15S
RICE LAKE      CLEAR     75  65  70 SE7       30.16S
6HR MIN TEMP:  67; 6HR MAX TEMP:  77;

CHETEK         NOT AVBL
LADYSMITH      CLEAR     76  65  69 S3        30.18S
6HR MIN TEMP:  73; 6HR MAX TEMP:  79;

EAU CLAIRE     CLEAR     78  66  66 SE7       30.14S HX  80
6HR MIN TEMP:  73; 6HR MAX TEMP:  81;

MENOMONIE      CLEAR     78  68  70 SE7       30.14S HX  80
6HR MIN TEMP:  72; 6HR MAX TEMP:  82;

NEW RICHMOND   CLEAR     77  69  76 SE7       30.13R
6HR MIN TEMP:  71; 6HR MAX TEMP:  81;

OSCEOLA        CLEAR     78  74  88 SE7       30.13S HX  80
6HR MIN TEMP:  72; 6HR MAX TEMP:  80;

$$

WIZ003>005-009-010-017-018-290100-
NORTH CENTRAL WISCONSIN

CITY           SKY/WX    TMP DP  RH WIND       PRES   REMARKS
MANITOWISH WTR NOT AVBL
ARBOR VITAE    CLEAR     77  66  69 E3        30.20S
6HR MIN TEMP:  72; 6HR MAX TEMP:  77;

WOODRUFF       CLEAR     77  66  69 E3        30.20S
6HR MIN TEMP:  72; 6HR MAX TEMP:  77;

RHINELANDER    CLEAR     74  64  71 S3        30.21S
6HR MIN TEMP:  74; 6HR MAX TEMP:  80;

EAGLE RIVER    CLEAR     72  59  64 CALM      30.20S
6HR MIN TEMP:  72; 6HR MAX TEMP:  76;

LAND O LAKES   CLEAR     72  62  70 CALM      30.22R
6HR MIN TEMP:  72; 6HR MAX TEMP:  76;

PHILLIPS       CLEAR     74  64  71 SW3       30.18R
6HR MIN TEMP:  70; 6HR MAX TEMP:  77;

TOMAHAWK       CLEAR     72  62  72 CALM      30.20S
6HR MIN TEMP:  72; 6HR MAX TEMP:  77;

MEDFORD        CLEAR     73  65  78 CALM      30.19S
6HR MIN TEMP:  71; 6HR MAX TEMP:  76;

MERRILL        CLEAR     75  64  69 CALM      30.20S
6HR MIN TEMP:  73; 6HR MAX TEMP:  77;

$$

WIZ029-030-035-036-043>047-290100-
CENTRAL WISCONSIN

CITY           SKY/WX    TMP DP  RH WIND       PRES   REMARKS
WAUSAU         PTCLDY    75  63  66 S6        30.18R
6HR MIN TEMP:  71; 6HR MAX TEMP:  77;

MOSINEE        CLEAR     73  66  78 CALM      30.20S
MARSHFIELD     CLEAR     76  64  66 SE5       30.18S
6HR MIN TEMP:  75; 6HR MAX TEMP:  80;

STEVENS POINT  CLEAR     75  64  67 CALM      30.19R
6HR MIN TEMP:  72; 6HR MAX TEMP:  78;

WAUPACA        CLEAR     78  66  66 SE3       30.18S HX  80
6HR MIN TEMP:  78; 6HR MAX TEMP:  83;

WAUTOMA        CLOUDY    75  67  76 S6        30.19
6HR MIN TEMP:  75; 6HR MAX TEMP:  81; 6HR PCP:  0.01;

WISC RAPIDS    CLEAR     77  66  68 SW3       30.19R
6HR MIN TEMP:  75; 6HR MAX TEMP:  80;

CAMP DOUGLAS   CLOUDY    76  68  77 VRB7      30.18R
6HR MIN TEMP:  74; 6HR MAX TEMP:  79;

$$

WIZ011>013-019>022-031-037>040-048>050-290100-
NORTHEAST WISCONSIN

CITY           SKY/WX    TMP DP  RH WIND       PRES   REMARKS
ANTIGO         CLEAR     73  63  71 CALM      30.21S
6HR MIN TEMP:  72; 6HR MAX TEMP:  76;

SHAWANO        CLEAR     78  64  61 CALM      30.18S
6HR MIN TEMP:  76; 6HR MAX TEMP:  81;

OCONTO         NOT AVBL
STURGEON BAY   CLEAR     71  62  73 SE6       30.21S
6HR MIN TEMP:  71; 6HR MAX TEMP:  77;

GREEN BAY      CLEAR     74  68  81 S3        30.18S
6HR MIN TEMP:  74; 6HR MAX TEMP:  80;

MANITOWOC      CLOUDY    70  63  78 S7        30.21S
6HR MIN TEMP:  70; 6HR MAX TEMP:  77;

APPLETON       PTCLDY    75  63  64 SE6       30.18S
CLINTONVILLE   CLEAR     77  63  61 CALM      30.18S
OSHKOSH        PTCLDY    76  65  68 E3        30.18S
6HR MIN TEMP:  75; 6HR MAX TEMP:  78;

$$

WIZ032>034-041-042-053>061-290100-
SOUTHWEST WISCONSIN

CITY           SKY/WX    TMP DP  RH WIND       PRES   REMARKS
LA CROSSE      PTCLDY    80  70  71 SE9       30.14R HX  83
6HR MIN TEMP:  76; 6HR MAX TEMP:  83;

SPARTA         CLOUDY    77  68  73 SE5       30.17S
6HR MIN TEMP:  74; 6HR MAX TEMP:  80;

VIROQUA        CLEAR     74  69  85 E6        30.18S
6HR MIN TEMP:  74; 6HR MAX TEMP:  80;

BOSCOBEL       CLEAR     81  72  74 NE3       30.15R HX  85
6HR MIN TEMP:  81; 6HR MAX TEMP:  86;

PRAIRIE DU CHI MOCLDY    79  70  73 E6        30.14R HX  82
6HR MIN TEMP:  79; 6HR MAX TEMP:  84;

PLATTEVILLE    CLOUDY    80  72  75 E5        30.17S HX  84
6HR MIN TEMP:  80; 6HR MAX TEMP:  85;

$$

WIZ056-057-062-063-064-067-068-290100-
SOUTH CENTRAL WISCONSIN

CITY           SKY/WX    TMP DP  RH WIND       PRES   REMARKS
REEDSBURG      NOT AVBL
BARABOO/DELLS  CLEAR     74  66  75 E5        30.18S
6HR MIN TEMP:  72; 6HR MAX TEMP:  78;

LONE ROCK      CLEAR     78  70  76 NE6       30.17R HX  80
6HR MIN TEMP:  73; 6HR MAX TEMP:  81;

MINERAL POINT  PTCLDY    81  70  69 E3        30.18R HX  84
MADISON        CLOUDY    78  69  73 NE5       30.17S HX  80
6HR MIN TEMP:  73; 6HR MAX TEMP:  81;

MIDDLETON      CLOUDY    78  70  77 E3        30.19R HX  80
6HR MIN TEMP:  76; 6HR MAX TEMP:  82;

WATERTOWN      CLEAR     77  70  78 NE3       30.17S
6HR MIN TEMP:  73; 6HR MAX TEMP:  80;

MONROE         CLOUDY    77  70  78 CALM      30.17R
JANESVILLE     MOCLDY    81  70  69 SE3       30.15F HX  84
$$

WIZ051-052-058>065-066-070>072-290100-
SOUTHEAST WISCONSIN

CITY           SKY/WX    TMP DP  RH WIND       PRES   REMARKS
MILWAUKEE      PTCLDY    72  67  84 SE7       30.19R
6HR MIN TEMP:  71; 6HR MAX TEMP:  76;

WAUKESHA       PTCLDY    73  66  78 SE8       30.20R
MILWAUKEE/TIMM CLEAR     73  63  68 SE6       30.20R
RACINE         CLEAR     72  67  84 E7        30.21R
6HR MIN TEMP:  71; 6HR MAX TEMP:  76;

BURLINGTON     PTCLDY    72  66  81 E6        30.19R
6HR MIN TEMP:  72; 6HR MAX TEMP:  80;

KENOSHA        PTCLDY    71  67  87 E7        30.19S
6HR MIN TEMP:  71; 6HR MAX TEMP:  77;

FOND DU LAC    CLEAR     75  67  76 CALM      30.19R
6HR MIN TEMP:  75; 6HR MAX TEMP:  80;

SHEBOYGAN      CLEAR     70  64  81 SE5       30.20S
6HR MIN TEMP:  70; 6HR MAX TEMP:  79;

WEST BEND      CLEAR     72  63  73 CALM      30.20S
JUNEAU         CLEAR     76  66  71 CALM      30.20S
6HR MIN TEMP:  71; 6HR MAX TEMP:  78;

$$

LSZ147-162-290100-
LAKE SUPERIOR

STATION/POSITION TIME  TEMP    WIND        PRES    WAVE
                       AIR SEA DIR/SP/G            HT/PER
                 (UTC) (F)     (DEG/KT/KT) (MB)    (FT/S)
W MID LAKE BUOY  2350   67 69   70/  6/  6 1021.2S   0
DEVILS ISLAND    2300   66      70/ 10/ 11 1021.2F
PORT WING        2300   68      30/ 14/ 16 1020.7S
SAXON HARBOR     2300   70      50/ 11/ 13 1020.7
$$

LMZ867-665-643>646-290100-
LAKE MICHIGAN

STATION/POSITION TIME  TEMP    WIND        PRES    WAVE
                       AIR SEA DIR/SP/G            HT/PER
                 (UTC) (F)     (DEG/KT/KT) (MB)    (FT/S)
CHAMBERS ISLAND  2300   75     140/  3/  6 1022.0S
N MID LAKE BUOY  2350   71 72  200/  8/  8 1022.1S   1
NORTHPORT PIER   2300   C1F1C2F2C3F3C4F4C5F5C6F6C7F7C8M1C9M2Ca!



USA.gov is the U.S. government's official web portal to all federal, state and local government web resources and services.